[Iaude] MPEC F128: 2022 FU3 [a=2.09,e=0.49,i=5.1,H=21.4,PHA]

mpec at marsden.cfa.harvard.edu mpec at marsden.cfa.harvard.edu
Wed Mar 30 09:37:31 EDT 2022


M.P.E.C. 2022-F128                               Issued 2022 March 30, 13:35 UT

     The Minor Planet Electronic Circulars contain information on unusual
         minor planets and routine data on comets.  They are published
    on behalf of Division F of the International Astronomical Union by the
          Minor Planet Center, Smithsonian Astrophysical Observatory,
                          Cambridge, MA 02138, U.S.A.

             Prepared using the Tamkin Foundation Computer Network

                              MPC at CFA.HARVARD.EDU
            URL https://www.minorplanetcenter.net/    ISSN 1523-6714

                                    2022 FU3                                    


Observations:
     K22F03U* C2022 03 26.55447315 12 23.032-01 27 01.17         21.41wUEF128F52
     K22F03U  C2022 03 26.56483315 12 24.442-01 26 58.92         21.31wUEF128F52
     K22F03U  C2022 03 26.57515615 12 25.829-01 26 56.77         21.63wUEF128F52
     K22F03U  C2022 03 26.59168415 12 28.072-01 26 53.27         21.67wUEF128F52
     K22F03U KC2022 03 27.35667015 14 18.69 -01 24 17.1          21.2 VuEF128H21
     K22F03U KC2022 03 27.36226115 14 19.46 -01 24 15.6          21.0 VuEF128H21
     K22F03U KC2022 03 27.36524415 14 19.92 -01 24 14.8          20.9 VuEF128H21
     K22F03U ^C2022 03 27.49932415 14 39.779-01 23 39.75         21.83GVEF128568
     K22F03U ^C2022 03 27.50142415 14 40.067-01 23 39.44         21.99GVEF128568
     K22F03U ^C2022 03 27.50309415 14 40.305-01 23 38.95         21.60GVEF128568
     K22F03U  C2022 03 27.50436515 14 40.487-01 23 38.88         21.59GVEF128F52
     K22F03U ^C2022 03 27.50599415 14 40.712-01 23 38.24         21.74GVEF128568
     K22F03U 1C2022 03 28.07565 15 16 03.56 -01 21 42.4          21.7 VXEF128033
     K22F03U 1C2022 03 28.07895 15 16 04.03 -01 21 41.8          20.9 VXEF128033
     K22F03U 1C2022 03 28.08224 15 16 04.49 -01 21 41.4          20.8 VXEF128033
     K22F03U 1C2022 03 28.08569 15 16 04.97 -01 21 40.3          20.5 VXEF128033
     K22F03U |C2022 03 28.22063 15 16 25.46 -01 20 43.7          20.8 GVEF128807
     K22F03U |C2022 03 28.22989 15 16 26.77 -01 20 41.9          21.3 GVEF128807
     K22F03U |C2022 03 28.23914 15 16 28.07 -01 20 39.6          21.2 GVEF128807
     K22F03U KC2022 03 28.35227815 16 44.20 -01 20 38.1                uEF128H21
     K22F03U KC2022 03 28.35563415 16 44.68 -01 20 37.2                uEF128H21
     K22F03U KC2022 03 28.35703215 16 44.90 -01 20 37.1          21.0 VuEF128H21
     K22F03U KC2022 03 28.35790915 16 45.45 -01 20 35.1          21.17GVEF128I52
     K22F03U KC2022 03 28.36174415 16 46.03 -01 20 34.2          21.31GVEF128I52
     K22F03U KC2022 03 30.44805 15 21 58.13 -01 12 33.1          20.6 RoEF128691
     K22F03U KC2022 03 30.46659 15 22 00.81 -01 12 27.0                oEF128691
     K22F03U KC2022 03 30.48513 15 22 03.49 -01 12 23.7          22.3 RoEF128691

Observer details:
033 Karl Schwarzschild Observatory, Tautenburg.  Observers S. Melnikov, C.
    Hoegner, U. Laux, F. Ludwig, B. Stecklum.  Measurer B. Stecklum.  1.34-m
    f/3 Schmidt + CCD.
568 Mauna Kea.  Observers J. Fairlamb, Y. Ramanjooloo.  Measurers R. Weryk, Y.
    Ramanjooloo, R. Wainscoat.  2.24-m University of Hawaii reflector + CCD.
691 Steward Observatory, Kitt Peak-Spacewatch.  Observer J. V. Scotti.  0.9-m
    f/3 reflector + CCD.
807 Cerro Tololo Observatory, La Serena.  Observers T. Linder, R. Holmes, L.
    Horn.  1.00-m f/10.0 astrograph + CCD.
F52 Pan-STARRS 2, Haleakala.  Observers J. Bulger, T. Lowe, A. Schultz, I.
    Smith, K. Chambers, T. Dukes.  Measurers K. Chambers, S. Chastel, T. de
    Boer, J. Fairlamb, H. Gao, M. Huber, C.-C. Lin, E. Magnier, Y.
    Ramanjooloo, R. Wainscoat, R. Weryk.  1.8-m Ritchey-Chretien + CCD.
H21 Astronomical Research Observatory, Westfield.  Observer R. Holmes.
    Measurers T. Linder, R. Holmes, L. Horn.  0.76-m f/3.0 astrograph + CCD.
I52 Steward Observatory, Mt. Lemmon Station.  Observer H. Groeller.  Measurers
    E. J. Christensen, G. A. Farneth, J. B. Fazekas, D. C. Fuls, A. R. Gibbs,
    A. D. Grauer, H. Groeller, J. K. Hogan, R. A. Kowalski, S. M. Larson, G.
    J. Leonard, D. Rankin, R. L. Seaman, A. Serrano, F. C. Shelly, K. W.
    Wierzchos.

Orbital elements:
2022 FU3                                            PHA, Earth MOID = 0.0405 AU
Epoch 2022 Jan. 21.0 TT = JDT 2459600.5                 Veres                   
M 314.56587              (2000.0)            P               Q                  
n   0.32704288     Peri.  172.58734     -0.05749180     +0.99434654             
a   2.0864097      Node    94.08717     -0.92049635     -0.01817806             
e   0.4946105      Incl.    5.13487     -0.38649860     -0.10461600             
P   3.01           H   21.45          G   0.15           U   9                  
Residuals in seconds of arc
220326 F52  0.1-  0.0     220327 568  0.1+  0.0     220328 807  0.0   0.1+
220326 F52  0.1+  0.1+    220327 F52  0.0   0.1+    220328 H21  0.4-  0.3+
220326 F52  0.1-  0.1+    220327 568 (0.2+  0.1+)   220328 H21  0.2-  0.5+
220326 F52  0.0   0.1+    220328 033  0.2+  0.4+    220328 H21  0.1+  0.2+
220327 H21  0.2-  0.4-    220328 033  0.2+  0.2+    220328 I52  0.4-  0.0
220327 H21  0.3-  0.1-    220328 033  0.2+  0.1-    220328 I52  0.1+  0.1+
220327 H21  0.4+  0.0     220328 033  0.1+  0.3+    220330 691  0.2+  0.2-
220327 568  0.0   0.0     220328 807  0.1-  0.1+    220330 691  0.1+  1.5+
220327 568  0.0   0.1-    220328 807  0.0   0.2-    220330 691  0.0   0.3+

Ephemeris:
2022 FU3                 a,e,i = 2.09, 0.49, 5                   q = 1.0544
Date    TT    R. A. (2000) Decl.     Delta      r    Elong.  Phase     V
2022 02 28    14 17 20.9 -02 06 22   0.7130  1.5197   125.5    32.0    23.0
...
2022 03 15    14 46 46.6 -01 57 32   0.5425  1.4193   132.7    31.0    22.2
...
2022 03 23    15 04 06.5 -01 38 25   0.4627  1.3670   135.8    30.5    21.8
...
2022 03 29    15 18 19.9 -01 17 59   0.4080  1.3288   137.7    30.3    21.4
2022 03 30    15 20 50.0 -01 14 07   0.3993  1.3225   138.0    30.3    21.4
2022 03 31    15 23 22.8 -01 10 09   0.3907  1.3163   138.3    30.3    21.3
...
2022 04 06    15 39 43.0 -00 44 21   0.3419  1.2797   139.4    30.6    21.0
...
2022 04 14    16 05 19.7 -00 07 29   0.2839  1.2332   139.8    31.7    20.5
...
2022 04 29    17 13 22.5 +00 46 08   0.1977  1.1562   135.5    37.6    19.8

M. P. C. Staff               (C) Copyright 2022 MPC           M.P.E.C. 2022-F128




More information about the Iaude mailing list